Time,TemperatureF,DewpointF,PressureIn,WindDirection,WindDirectionDegrees,WindSpeedMPH,WindSpeedGustMPH,Humidity,HourlyPrecipIn,Conditions,Clouds,dailyrainin,SoftwareType,DateUTC
2013-04-21 07:58:00,39.3,22.2,30.40,ESE,112,6.2,6.2,50,0.00,,CLR,0.00,VWS V14.01,2013-04-21 12:58:00,
2013-04-21 07:59:00,39.3,22.2,30.40,SE,135,2.6,2.6,50,0.00,,CLR,0.00,VWS V14.01,2013-04-21 12:59:00,
2013-04-21 08:00:00,39.3,22.2,30.40,SSE,158,0.0,6.2,50,0.00,,CLR,0.00,VWS V14.01,2013-04-21 13:00:00,
2013-04-21 08:01:00,39.3,22.2,30.40,SSE,158,0.0,0.0,50,0.00,,CLR,0.00,VWS V14.01,2013-04-21 13:01:00,
2013-04-21 08:03:00,39.3,22.2,30.41,SSE,158,8.0,8.0,50,0.00,,CLR,0.00,VWS V14.01,2013-04-21 13:03:00,
2013-04-21 08:05:00,39.3,22.2,30.40,SSE,158,16.4,16.4,50,0.00,,CLR,0.00,VWS V14.01,2013-04-21 13:05:00,
2013-04-21 08:06:00,39.3,22.2,30.41,South,180,0.0,0.0,50,0.00,,CLR,0.00,VWS V14.01,2013-04-21 13:06:00,
2013-04-21 08:08:00,39.3,22.2,30.40,South,180,7.6,7.6,50,0.00,,CLR,0.00,VWS V14.01,2013-04-21 13:08:00,
2013-04-21 08:10:00,39.5,22.4,30.40,South,180,5.8,5.8,50,0.00,,CLR,0.00,VWS V14.01,2013-04-21 13:10:00,
2013-04-21 08:11:00,39.5,22.4,30.40,SSE,158,0.0,5.8,50,0.00,,CLR,0.00,VWS V14.01,2013-04-21 13:11:00,
2013-04-21 08:12:00,39.5,22.4,30.40,ESE,112,8.0,8.0,50,0.00,,CLR,0.00,VWS V14.01,2013-04-21 13:12:00,
2013-04-21 08:15:00,39.5,22.4,30.40,South,180,1.6,1.6,50,0.00,,CLR,0.00,VWS V14.01,2013-04-21 13:15:00,
2013-04-21 08:16:00,39.5,22.4,30.40,ESE,112,2.6,2.6,50,0.00,,CLR,0.00,VWS V14.01,2013-04-21 13:16:00,
2013-04-21 08:17:00,39.7,22.6,30.40,SE,135,7.6,7.6,50,0.00,,CLR,0.00,VWS V14.01,2013-04-21 13:17:00,
2013-04-21 08:18:00,39.7,22.6,30.40,SE,135,3.4,3.4,50,0.00,,CLR,0.00,VWS V14.01,2013-04-21 13:18:00,
2013-04-21 08:19:00,39.7,22.6,30.40,South,180,9.8,9.8,50,0.00,,CLR,0.00,VWS V14.01,2013-04-21 13:19:00,
2013-04-21 08:20:00,39.7,22.6,30.40,SE,135,4.8,9.8,50,0.00,,OVC095,0.00,VWS V14.01,2013-04-21 13:20:00,
2013-04-21 08:22:00,39.7,22.6,30.40,SE,135,4.8,4.8,50,0.00,,OVC095,0.00,VWS V14.01,2013-04-21 13:22:00,
2013-04-21 08:23:00,39.7,22.6,30.40,SSE,158,6.2,6.2,50,0.00,,OVC095,0.00,VWS V14.01,2013-04-21 13:23:00,
2013-04-21 08:24:00,39.7,22.6,30.40,South,180,8.0,8.0,50,0.00,,OVC095,0.00,VWS V14.01,2013-04-21 13:24:00,
2013-04-21 08:25:00,39.7,22.6,30.40,ESE,112,15.6,15.6,50,0.00,,OVC095,0.00,VWS V14.01,2013-04-21 13:25:00,
2013-04-21 08:27:00,39.7,22.6,30.40,SE,135,8.0,8.0,50,0.00,,OVC095,0.00,VWS V14.01,2013-04-21 13:27:00,
2013-04-21 08:28:00,39.9,22.8,30.40,South,180,6.2,8.0,50,0.00,,OVC095,0.00,VWS V14.01,2013-04-21 13:28:00,
2013-04-21 08:30:00,39.9,22.8,30.40,SSE,158,5.2,9.2,50,0.00,,OVC095,0.00,VWS V14.01,2013-04-21 13:30:00,
2013-04-21 08:32:00,39.9,22.8,30.40,South,180,13.4,13.4,50,0.00,,OVC095,0.00,VWS V14.01,2013-04-21 13:32:00,
2013-04-21 08:34:00,39.9,22.3,30.41,ESE,112,0.0,13.4,49,0.00,,OVC095,0.00,VWS V14.01,2013-04-21 13:34:00,
2013-04-21 08:36:00,39.9,22.3,30.41,South,180,0.0,8.0,49,0.00,,OVC095,0.00,VWS V14.01,2013-04-21 13:36:00,
2013-04-21 08:37:00,39.9,22.3,30.41,SE,135,6.2,6.2,49,0.00,,OVC095,0.00,VWS V14.01,2013-04-21 13:37:00,
2013-04-21 08:40:00,39.9,22.3,30.40,NNE,22,0.0,7.0,49,0.00,,OVC095,0.00,VWS V14.01,2013-04-21 13:40:00,
2013-04-21 08:41:00,39.9,22.3,30.41,SE,135,5.2,5.2,49,0.00,,OVC095,0.00,VWS V14.01,2013-04-21 13:41:00,
2013-04-21 08:42:00,39.9,22.3,30.40,ESE,112,4.8,4.8,49,0.00,,OVC095,0.00,VWS V14.01,2013-04-21 13:42:00,
2013-04-21 08:43:00,39.9,22.3,30.41,SE,135,0.0,4.8,49,0.00,,OVC095,0.00,VWS V14.01,2013-04-21 13:43:00,
2013-04-21 08:45:00,40.1,22.0,30.40,ESE,112,8.8,9.2,48,0.00,,OVC095,0.00,VWS V14.01,2013-04-21 13:45:00,
2013-04-21 08:46:00,40.1,22.0,30.40,SSE,158,3.0,3.0,48,0.00,,OVC095,0.00,VWS V14.01,2013-04-21 13:46:00,
2013-04-21 08:48:00,40.1,22.0,30.40,East,90,8.8,16.0,48,0.00,,OVC095,0.00,VWS V14.01,2013-04-21 13:48:00,
2013-04-21 08:49:00,40.1,22.0,30.40,SE,135,7.6,8.8,48,0.00,,BKN090,0.00,VWS V14.01,2013-04-21 13:49:00,
2013-04-21 08:50:00,40.2,22.1,30.40,East,90,9.8,9.8,48,0.00,,BKN090,0.00,VWS V14.01,2013-04-21 13:50:00,
2013-04-21 08:51:00,40.2,22.1,30.41,SSE,158,0.0,9.8,48,0.00,,BKN090,0.00,VWS V14.01,2013-04-21 13:51:00,
2013-04-21 08:53:00,40.4,21.8,30.40,East,90,6.6,9.2,47,0.00,,BKN090,0.00,VWS V14.01,2013-04-21 13:53:00,
2013-04-21 08:54:00,40.4,21.8,30.40,East,90,9.2,9.2,47,0.00,,BKN090,0.00,VWS V14.01,2013-04-21 13:54:00,
2013-04-21 08:56:00,40.4,21.8,30.40,WSW,248,8.4,8.4,47,0.00,,BKN090,0.00,VWS V14.01,2013-04-21 13:56:00,
2013-04-21 08:58:00,40.6,22.0,30.40,South,180,0.0,8.4,47,0.00,,BKN090,0.00,VWS V14.01,2013-04-21 13:58:00,
2013-04-21 08:59:00,40.6,22.0,30.40,ESE,112,6.6,6.6,47,0.00,,BKN090,0.00,VWS V14.01,2013-04-21 13:59:00,
2013-04-21 09:00:00,40.8,22.1,30.40,ESE,112,8.8,8.8,47,0.00,,BKN090,0.00,VWS V14.01,2013-04-21 14:00:00,
2013-04-21 09:02:00,41.0,22.3,30.39,South,180,7.0,8.8,47,0.00,,BKN090,0.00,VWS V14.01,2013-04-21 14:02:00,
2013-04-21 09:03:00,41.1,22.4,30.39,SE,135,2.6,7.0,47,0.00,,BKN090,0.00,VWS V14.01,2013-04-21 14:03:00,
2013-04-21 09:05:00,41.1,22.4,30.40,SSE,158,8.4,8.4,47,0.00,,BKN090,0.00,VWS V14.01,2013-04-21 14:05:00,
2013-04-21 09:08:00,41.3,22.6,30.39,SSE,158,0.0,8.4,47,0.00,,BKN090,0.00,VWS V14.01,2013-04-21 14:08:00,
2013-04-21 09:12:00,41.5,22.3,30.39,SE,135,12.8,12.8,46,0.00,,BKN090,0.00,VWS V14.01,2013-04-21 14:12:00,
2013-04-21 09:14:00,41.9,22.6,30.39,ESE,112,0.0,7.0,46,0.00,,BKN090,0.00,VWS V14.01,2013-04-21 14:14:00,
2013-04-21 09:16:00,41.9,22.1,30.39,South,180,0.0,9.8,45,0.00,,BKN090,0.00,VWS V14.01,2013-04-21 14:16:00,
2013-04-21 09:19:00,42.2,22.4,30.39,SE,135,4.4,4.4,45,0.00,,BKN090,0.00,VWS V14.01,2013-04-21 14:19:00,
2013-04-21 09:20:00,42.2,22.4,30.39,ESE,112,13.8,13.8,45,0.00,,BKN090,0.00,VWS V14.01,2013-04-21 14:20:00,
2013-04-21 09:22:00,42.2,21.9,30.39,SSE,158,18.2,18.2,44,0.00,,BKN090,0.00,VWS V14.01,2013-04-21 14:22:00,
2013-04-21 09:26:00,42.4,22.0,30.39,SSE,158,0.0,11.0,44,0.00,,BKN090,0.00,VWS V14.01,2013-04-21 14:26:00,
2013-04-21 09:28:00,42.6,22.2,30.39,SSE,158,0.0,12.8,44,0.00,,BKN090,0.00,VWS V14.01,2013-04-21 14:28:00,
2013-04-21 09:29:00,42.8,22.4,30.39,ESE,112,7.6,7.6,44,0.00,,BKN090,0.00,VWS V14.01,2013-04-21 14:29:00,
2013-04-21 09:31:00,42.9,22.5,30.39,SSE,158,10.2,10.2,44,0.00,,BKN090,0.00,VWS V14.01,2013-04-21 14:31:00,
2013-04-21 09:32:00,42.9,22.0,30.39,South,180,7.0,10.2,43,0.00,,BKN090,0.00,VWS V14.01,2013-04-21 14:32:00,
2013-04-21 09:34:00,42.9,22.0,30.39,SE,135,8.8,8.8,43,0.00,,BKN090,0.00,VWS V14.01,2013-04-21 14:34:00,
2013-04-21 09:35:00,42.9,22.0,30.39,ESE,112,7.0,7.0,43,0.00,,BKN090,0.00,VWS V14.01,2013-04-21 14:35:00,
2013-04-21 09:36:00,43.1,22.1,30.39,SSE,158,0.0,15.6,43,0.00,,BKN090,0.00,VWS V14.01,2013-04-21 14:36:00,
2013-04-21 09:37:00,43.1,22.1,30.39,SSE,158,0.0,0.0,43,0.00,,BKN090,0.00,VWS V14.01,2013-04-21 14:37:00,
2013-04-21 09:41:00,43.7,22.7,30.38,East,90,5.8,5.8,43,0.00,,BKN090,0.00,VWS V14.01,2013-04-21 14:41:00,
2013-04-21 09:42:00,43.7,22.1,30.38,SE,135,11.0,11.0,42,0.00,,BKN090,0.00,VWS V14.01,2013-04-21 14:42:00,
2013-04-21 09:43:00,43.7,22.1,30.38,ESE,112,18.2,18.2,42,0.00,,BKN090,0.00,VWS V14.01,2013-04-21 14:43:00,
2013-04-21 09:44:00,43.7,21.6,30.37,ESE,112,25.8,25.8,41,0.00,,BKN090,0.00,VWS V14.01,2013-04-21 14:44:00,
2013-04-21 09:48:00,44.0,21.8,30.38,SE,135,29.0,29.0,41,0.00,,BKN090,0.00,VWS V14.01,2013-04-21 14:48:00,
2013-04-21 09:49:00,44.0,21.8,30.38,SE,135,29.0,29.0,41,0.00,,BKN090,0.00,VWS V14.01,2013-04-21 14:49:00,
2013-04-21 09:50:00,44.0,21.8,30.38,South,180,14.2,29.0,41,0.00,,OVC080,0.00,VWS V14.01,2013-04-21 14:50:00,
2013-04-21 09:51:00,44.0,21.8,30.38,South,180,15.2,15.2,41,0.00,,OVC080,0.00,VWS V14.01,2013-04-21 14:51:00,
2013-04-21 09:52:00,44.0,21.2,30.38,ESE,112,15.2,15.2,40,0.00,,OVC080,0.00,VWS V14.01,2013-04-21 14:52:00,
2013-04-21 09:54:00,44.0,21.2,30.38,SSE,158,5.2,12.8,40,0.00,,OVC080,0.00,VWS V14.01,2013-04-21 14:54:00,
2013-04-21 09:56:00,44.0,21.8,30.38,SSE,158,5.2,5.2,41,0.00,,OVC080,0.00,VWS V14.01,2013-04-21 14:56:00,
2013-04-21 09:58:00,44.0,21.8,30.38,South,180,1.2,9.2,41,0.00,,OVC080,0.00,VWS V14.01,2013-04-21 14:58:00,
2013-04-21 09:59:00,43.8,21.6,30.38,SSE,158,0.0,0.0,41,0.00,,OVC080,0.00,VWS V14.01,2013-04-21 14:59:00,
2013-04-21 10:03:00,44.0,21.8,30.38,SE,135,11.0,11.0,41,0.00,,OVC080,0.00,VWS V14.01,2013-04-21 15:03:00,
2013-04-21 10:04:00,44.2,22.0,30.38,SE,135,18.2,18.2,41,0.00,,OVC080,0.00,VWS V14.01,2013-04-21 15:04:00,
2013-04-21 10:05:00,44.2,22.0,30.38,South,180,0.0,0.0,41,0.00,,OVC080,0.00,VWS V14.01,2013-04-21 15:05:00,
2013-04-21 10:09:00,45.3,23.6,30.38,SSE,158,3.0,3.0,42,0.00,,OVC080,0.00,VWS V14.01,2013-04-21 15:09:00,
2013-04-21 10:10:00,45.3,23.6,30.38,SSE,158,7.0,7.0,42,0.00,,OVC080,0.00,VWS V14.01,2013-04-21 15:10:00,
2013-04-21 10:11:00,45.5,23.2,30.38,ESE,112,4.8,4.8,41,0.00,,OVC080,0.00,VWS V14.01,2013-04-21 15:11:00,
2013-04-21 10:12:00,45.6,23.3,30.38,SSW,202,12.0,12.0,41,0.00,,OVC080,0.00,VWS V14.01,2013-04-21 15:12:00,
2013-04-21 10:15:00,46.0,23.0,30.38,SSE,158,9.8,9.8,40,0.00,,OVC080,0.00,VWS V14.01,2013-04-21 15:15:00,
2013-04-21 10:17:00,46.0,23.6,30.38,SSE,158,8.0,8.0,41,0.00,,OVC080,0.00,VWS V14.01,2013-04-21 15:17:00,
2013-04-21 10:18:00,46.5,24.1,30.38,SE,135,12.4,12.4,41,0.00,,OVC080,0.00,VWS V14.01,2013-04-21 15:18:00,
2013-04-21 10:19:00,46.5,24.1,30.38,SE,135,12.4,12.4,41,0.00,,OVC080,0.00,VWS V14.01,2013-04-21 15:19:00,
2013-04-21 10:20:00,46.7,24.3,30.38,SSE,158,4.0,12.4,41,0.00,,OVC080,0.00,VWS V14.01,2013-04-21 15:20:00,
2013-04-21 10:21:00,46.9,23.9,30.38,ESE,112,17.4,17.4,40,0.00,,OVC080,0.00,VWS V14.01,2013-04-21 15:21:00,
2013-04-21 10:22:00,46.9,23.3,30.38,SSW,202,17.4,17.4,39,0.00,,OVC080,0.00,VWS V14.01,2013-04-21 15:22:00,
2013-04-21 10:24:00,46.7,22.5,30.38,South,180,11.6,17.4,38,0.00,,OVC080,0.00,VWS V14.01,2013-04-21 15:24:00,
2013-04-21 10:27:00,46.7,21.8,30.38,ESE,112,7.6,7.6,37,0.00,,OVC080,0.00,VWS V14.01,2013-04-21 15:27:00,
2013-04-21 10:29:00,46.9,22.0,30.38,ESE,112,6.2,6.2,37,0.00,,OVC080,0.00,VWS V14.01,2013-04-21 15:29:00,
2013-04-21 10:30:00,47.1,22.2,30.38,ESE,112,3.4,6.2,37,0.00,,OVC080,0.00,VWS V14.01,2013-04-21 15:30:00,
2013-04-21 10:31:00,47.1,22.2,30.38,South,180,4.8,4.8,37,0.00,,OVC080,0.00,VWS V14.01,2013-04-21 15:31:00,
2013-04-21 10:32:00,47.3,22.4,30.38,SE,135,16.4,16.4,37,0.00,,OVC080,0.00,VWS V14.01,2013-04-21 15:32:00,
2013-04-21 10:34:00,47.4,22.5,30.37,East,90,17.4,17.4,37,0.00,,OVC080,0.00,VWS V14.01,2013-04-21 15:34:00,
2013-04-21 10:35:00,47.4,22.5,30.37,East,90,17.4,17.4,37,0.00,,OVC080,0.00,VWS V14.01,2013-04-21 15:35:00,
2013-04-21 10:38:00,47.8,22.8,30.38,SE,135,14.6,14.6,37,0.00,,OVC080,0.00,VWS V14.01,2013-04-21 15:38:00,
2013-04-21 10:41:00,47.8,22.2,30.37,SSE,158,12.0,12.0,36,0.00,,OVC080,0.00,VWS V14.01,2013-04-21 15:41:00,
2013-04-21 10:42:00,47.8,22.2,30.37,ENE,68,2.6,12.0,36,0.00,,OVC080,0.00,VWS V14.01,2013-04-21 15:42:00,
2013-04-21 10:44:00,48.0,22.3,30.37,SE,135,1.6,1.6,36,0.00,,OVC080,0.00,VWS V14.01,2013-04-21 15:44:00,
2013-04-21 10:46:00,48.0,22.3,30.37,ESE,112,0.0,6.6,36,0.00,,OVC080,0.00,VWS V14.01,2013-04-21 15:46:00,
2013-04-21 10:48:00,48.0,22.3,30.37,ESE,112,0.8,0.8,36,0.00,,OVC080,0.00,VWS V14.01,2013-04-21 15:48:00,
2013-04-21 10:50:00,48.0,22.3,30.37,ESE,112,0.0,16.4,36,0.00,,OVC080,0.00,VWS V14.01,2013-04-21 15:50:00,
2013-04-21 10:52:00,48.3,21.9,30.37,South,180,17.0,17.0,35,0.00,,OVC080,0.00,VWS V14.01,2013-04-21 15:52:00,
2013-04-21 10:54:00,48.2,21.9,30.37,SSW,202,4.8,6.2,35,0.00,,OVC080,0.00,VWS V14.01,2013-04-21 15:54:00,
2013-04-21 10:55:00,48.0,21.7,30.37,SSW,202,4.0,4.0,35,0.00,,OVC080,0.00,VWS V14.01,2013-04-21 15:55:00,
2013-04-21 10:56:00,47.8,21.5,30.37,South,180,4.8,4.8,35,0.00,,OVC080,0.00,VWS V14.01,2013-04-21 15:56:00,
2013-04-21 10:57:00,48.0,21.7,30.37,SSE,158,22.8,22.8,35,0.00,,OVC080,0.00,VWS V14.01,2013-04-21 15:57:00,
2013-04-21 11:00:00,47.6,21.3,30.37,ESE,112,11.0,11.0,35,0.00,,OVC080,0.00,VWS V14.01,2013-04-21 16:00:00,
2013-04-21 11:02:00,47.3,21.0,30.37,East,90,11.0,11.0,35,0.00,,OVC080,0.00,VWS V14.01,2013-04-21 16:02:00,
2013-04-21 11:05:00,47.3,21.0,30.37,ESE,112,5.2,5.2,35,0.00,,OVC080,0.00,VWS V14.01,2013-04-21 16:05:00,
2013-04-21 11:06:00,47.3,21.0,30.37,ESE,112,16.0,16.0,35,0.00,,OVC080,0.00,VWS V14.01,2013-04-21 16:06:00,
2013-04-21 11:07:00,47.3,21.0,30.37,SSE,158,12.0,12.0,35,0.00,,OVC080,0.00,VWS V14.01,2013-04-21 16:07:00,
2013-04-21 11:10:00,47.3,21.0,30.37,SSE,158,12.8,12.8,35,0.00,,OVC080,0.00,VWS V14.01,2013-04-21 16:10:00,
2013-04-21 11:11:00,47.3,21.7,30.37,SSW,202,8.4,8.4,36,0.00,,OVC080,0.00,VWS V14.01,2013-04-21 16:11:00,
2013-04-21 11:13:00,47.1,21.5,30.37,SE,135,12.4,12.4,36,0.00,,OVC080,0.00,VWS V14.01,2013-04-21 16:13:00,
2013-04-21 11:14:00,47.1,20.9,30.37,SE,135,4.8,12.4,35,0.00,,OVC080,0.00,VWS V14.01,2013-04-21 16:14:00,
2013-04-21 11:16:00,47.3,21.7,30.37,East,90,15.2,15.2,36,0.00,,OVC080,0.00,VWS V14.01,2013-04-21 16:16:00,
2013-04-21 11:17:00,47.3,21.7,30.37,East,90,15.2,15.2,36,0.00,,OVC080,0.00,VWS V14.01,2013-04-21 16:17:00,
2013-04-21 11:19:00,47.8,22.2,30.36,ESE,112,14.6,14.6,36,0.00,,OVC080,0.00,VWS V14.01,2013-04-21 16:19:00,
2013-04-21 11:20:00,47.8,22.2,30.36,SSW,202,11.0,14.6,36,0.00,,OVC080,0.00,VWS V14.01,2013-04-21 16:20:00,
2013-04-21 11:22:00,48.5,22.8,30.36,SSW,202,15.2,15.2,36,0.00,,OVC080,0.00,VWS V14.01,2013-04-21 16:22:00,
2013-04-21 11:24:00,49.4,24.2,30.36,SSW,202,5.2,11.6,37,0.00,,OVC080,0.00,VWS V14.01,2013-04-21 16:24:00,
2013-04-21 11:26:00,50.0,24.1,30.36,South,180,16.4,16.4,36,0.00,,OVC080,0.00,VWS V14.01,2013-04-21 16:26:00,
2013-04-21 11:30:00,50.1,24.2,30.36,ESE,112,7.0,7.0,36,0.00,,OVC080,0.00,VWS V14.01,2013-04-21 16:30:00,
2013-04-21 11:32:00,50.7,24.7,30.36,ESE,112,12.8,17.0,36,0.00,,OVC080,0.00,VWS V14.01,2013-04-21 16:32:00,
2013-04-21 11:33:00,50.7,24.7,30.36,ESE,112,12.8,12.8,36,0.00,,OVC080,0.00,VWS V14.01,2013-04-21 16:33:00,
2013-04-21 11:35:00,50.9,24.2,30.36,SSE,158,8.4,8.4,35,0.00,,OVC080,0.00,VWS V14.01,2013-04-21 16:35:00,
2013-04-21 11:36:00,51.2,24.5,30.35,SSE,158,10.2,10.2,35,0.00,,OVC080,0.00,VWS V14.01,2013-04-21 16:36:00,
2013-04-21 11:37:00,51.2,24.5,30.35,ESE,112,4.0,4.0,35,0.00,,OVC080,0.00,VWS V14.01,2013-04-21 16:37:00,
2013-04-21 11:38:00,51.6,24.9,30.35,South,180,7.0,7.0,35,0.00,,OVC080,0.00,VWS V14.01,2013-04-21 16:38:00,
2013-04-21 11:40:00,51.9,24.4,30.35,ESE,112,14.2,14.2,34,0.00,,OVC080,0.00,VWS V14.01,2013-04-21 16:40:00,
2013-04-21 11:43:00,52.1,24.6,30.35,SE,135,7.0,7.0,34,0.00,,OVC080,0.00,VWS V14.01,2013-04-21 16:43:00,
2013-04-21 11:44:00,52.3,24.8,30.35,ESE,112,15.2,15.2,34,0.00,,OVC080,0.00,VWS V14.01,2013-04-21 16:44:00,
2013-04-21 11:45:00,52.3,24.8,30.35,ESE,112,15.2,15.2,34,0.00,,OVC080,0.00,VWS V14.01,2013-04-21 16:45:00,
2013-04-21 11:46:00,52.3,24.8,30.35,ESE,112,16.0,16.0,34,0.00,,OVC080,0.00,VWS V14.01,2013-04-21 16:46:00,
2013-04-21 11:50:00,51.9,23.0,30.34,SSE,158,21.8,21.8,32,0.00,,BKN090,0.00,VWS V14.01,2013-04-21 16:50:00,
2013-04-21 11:51:00,51.9,23.0,30.35,South,180,0.0,0.0,32,0.00,,BKN090,0.00,VWS V14.01,2013-04-21 16:51:00,
2013-04-21 11:52:00,51.9,23.0,30.35,SSE,158,11.0,11.0,32,0.00,,BKN090,0.00,VWS V14.01,2013-04-21 16:52:00,
2013-04-21 11:55:00,52.5,23.5,30.34,SSE,158,18.2,18.2,32,0.00,,BKN090,0.00,VWS V14.01,2013-04-21 16:55:00,
2013-04-21 11:56:00,52.5,22.8,30.35,SSE,158,10.2,18.6,31,0.00,,BKN090,0.00,VWS V14.01,2013-04-21 16:56:00,
2013-04-21 11:59:00,52.5,22.8,30.34,SW,225,17.4,17.4,31,0.00,,BKN090,0.00,VWS V14.01,2013-04-21 16:59:00,
2013-04-21 12:00:00,52.5,22.8,30.34,South,180,19.2,19.2,31,0.00,,BKN090,0.00,VWS V14.01,2013-04-21 17:00:00,
2013-04-21 12:02:00,52.5,22.8,30.34,SSW,202,13.4,13.4,31,0.00,,BKN090,0.00,VWS V14.01,2013-04-21 17:02:00,
2013-04-21 12:06:00,52.5,22.0,30.34,SSE,158,8.4,8.4,30,0.00,,BKN090,0.00,VWS V14.01,2013-04-21 17:06:00,
2013-04-21 12:08:00,52.5,22.0,30.35,SE,135,7.6,7.6,30,0.00,,BKN090,0.00,VWS V14.01,2013-04-21 17:08:00,
2013-04-21 12:11:00,52.5,22.0,30.35,ESE,112,4.0,4.0,30,0.00,,BKN090,0.00,VWS V14.01,2013-04-21 17:11:00,
2013-04-21 12:12:00,52.7,22.2,30.35,ESE,112,7.0,7.0,30,0.00,,BKN090,0.00,VWS V14.01,2013-04-21 17:12:00,
2013-04-21 12:14:00,52.8,23.0,30.35,South,180,8.4,8.8,31,0.00,,BKN090,0.00,VWS V14.01,2013-04-21 17:14:00,
2013-04-21 12:16:00,53.2,23.4,30.35,ESE,112,9.2,9.2,31,0.00,,BKN090,0.00,VWS V14.01,2013-04-21 17:16:00,
2013-04-21 12:17:00,53.4,24.3,30.35,East,90,2.6,2.6,32,0.00,,BKN090,0.00,VWS V14.01,2013-04-21 17:17:00,
2013-04-21 12:19:00,53.6,23.7,30.34,SE,135,0.0,20.4,31,0.00,,BKN090,1.12,VWS V14.01,2013-04-21 17:19:00,
2013-04-21 12:20:00,53.6,23.7,30.34,SE,135,17.4,20.4,31,0.00,,BKN090,0.00,VWS V14.01,2013-04-21 17:20:00,
2013-04-21 12:22:00,53.4,23.5,30.34,SSE,158,16.4,17.4,31,0.00,,BKN090,0.00,VWS V14.01,2013-04-21 17:22:00,
2013-04-21 12:23:00,53.2,22.6,30.34,SSE,158,6.2,16.4,30,0.00,,BKN090,0.00,VWS V14.01,2013-04-21 17:23:00,
2013-04-21 12:24:00,53.2,22.6,30.34,ESE,112,8.0,8.0,30,0.00,,BKN090,0.00,VWS V14.01,2013-04-21 17:24:00,
2013-04-21 12:26:00,53.0,22.4,30.34,SE,135,8.4,8.4,30,0.00,,BKN090,0.00,VWS V14.01,2013-04-21 17:26:00,
2013-04-21 12:28:00,52.8,23.0,30.34,SSW,202,11.6,11.6,31,0.00,,BKN090,0.00,VWS V14.01,2013-04-21 17:28:00,
2013-04-21 12:31:00,53.2,24.1,30.34,ENE,68,0.0,6.2,32,0.00,,BKN090,0.00,VWS V14.01,2013-04-21 17:31:00,
2013-04-21 12:32:00,53.0,23.2,30.34,SSE,158,2.6,6.2,31,0.00,,BKN090,0.00,VWS V14.01,2013-04-21 17:32:00,
2013-04-21 12:33:00,53.2,23.4,30.34,SSE,158,7.0,7.0,31,0.00,,BKN090,0.00,VWS V14.01,2013-04-21 17:33:00,
2013-04-21 12:34:00,53.2,23.4,30.34,SE,135,8.0,8.0,31,0.00,,BKN090,0.00,VWS V14.01,2013-04-21 17:34:00,
2013-04-21 12:37:00,53.7,24.6,30.33,SSE,158,7.6,7.6,32,0.00,,BKN090,0.00,VWS V14.01,2013-04-21 17:37:00,
2013-04-21 12:38:00,53.7,23.8,30.33,SE,135,0.4,7.6,31,0.00,,BKN090,0.00,VWS V14.01,2013-04-21 17:38:00,
2013-04-21 12:40:00,53.9,24.7,30.33,SE,135,19.6,19.6,32,0.00,,BKN090,0.00,VWS V14.01,2013-04-21 17:40:00,
2013-04-21 12:41:00,54.3,25.1,30.33,SE,135,12.4,19.6,32,0.00,,BKN090,0.00,VWS V14.01,2013-04-21 17:41:00,
2013-04-21 12:43:00,54.8,25.5,30.33,East,90,10.6,10.6,32,0.00,,BKN090,0.00,VWS V14.01,2013-04-21 17:43:00,
2013-04-21 12:44:00,54.8,25.5,30.33,WNW,292,0.0,10.6,32,0.00,,BKN090,0.00,VWS V14.01,2013-04-21 17:44:00,
2013-04-21 12:46:00,55.0,24.9,30.33,South,180,14.2,14.2,31,0.00,,BKN090,0.00,VWS V14.01,2013-04-21 17:46:00,
2013-04-21 12:47:00,55.0,24.9,30.33,South,180,14.2,14.2,31,0.00,,BKN090,0.00,VWS V14.01,2013-04-21 17:47:00,
2013-04-21 12:49:00,54.8,24.8,30.33,SE,135,4.4,4.4,31,0.00,,BKN090,0.00,VWS V14.01,2013-04-21 17:49:00,
2013-04-21 12:50:00,54.5,23.7,30.33,ESE,112,8.8,8.8,30,0.00,,SCT100,0.00,VWS V14.01,2013-04-21 17:50:00,
2013-04-21 12:52:00,53.7,23.0,30.33,SSE,158,0.0,2.2,30,0.00,,SCT100,0.00,VWS V14.01,2013-04-21 17:52:00,
2013-04-21 12:54:00,53.6,22.9,30.33,SE,135,5.2,5.2,30,0.00,,SCT100,0.00,VWS V14.01,2013-04-21 17:54:00,
2013-04-21 12:55:00,53.2,22.6,30.32,SE,135,1.6,1.6,30,0.00,,SCT100,0.00,VWS V14.01,2013-04-21 17:55:00,
2013-04-21 12:56:00,53.2,22.6,30.32,South,180,0.0,1.6,30,0.00,,SCT100,0.00,VWS V14.01,2013-04-21 17:56:00,
2013-04-21 12:57:00,53.0,22.4,30.32,South,180,5.8,5.8,30,0.00,,SCT100,0.00,VWS V14.01,2013-04-21 17:57:00,
2013-04-21 12:59:00,53.0,23.2,30.32,SSW,202,13.4,13.4,31,0.00,,SCT100,0.00,VWS V14.01,2013-04-21 17:59:00,
2013-04-21 13:00:00,52.8,23.8,30.32,ESE,112,0.0,13.4,32,0.00,,SCT100,0.00,VWS V14.01,2013-04-21 18:00:00,
2013-04-21 13:03:00,52.8,23.8,30.32,SSE,158,20.0,20.0,32,0.00,,SCT100,0.00,VWS V14.01,2013-04-21 18:03:00,
2013-04-21 13:04:00,52.7,23.7,30.32,South,180,6.2,20.0,32,0.00,,SCT100,0.00,VWS V14.01,2013-04-21 18:04:00,
2013-04-21 13:06:00,52.8,24.5,30.32,South,180,11.0,17.4,33,0.00,,SCT100,0.00,VWS V14.01,2013-04-21 18:06:00,
2013-04-21 13:07:00,52.8,24.5,30.32,South,180,11.0,11.0,33,0.00,,SCT100,0.00,VWS V14.01,2013-04-21 18:07:00,
2013-04-21 13:09:00,53.0,24.7,30.32,SSE,158,11.0,11.0,33,0.00,,SCT100,0.00,VWS V14.01,2013-04-21 18:09:00,
2013-04-21 13:11:00,53.0,24.7,30.32,SSE,158,18.2,18.2,33,0.00,,SCT100,0.00,VWS V14.01,2013-04-21 18:11:00,
2013-04-21 13:13:00,53.0,24.7,30.31,SW,225,11.0,11.0,33,0.00,,SCT100,0.00,VWS V14.01,2013-04-21 18:13:00,
2013-04-21 13:14:00,53.2,24.9,30.31,East,90,9.2,11.0,33,0.00,,SCT100,0.00,VWS V14.01,2013-04-21 18:14:00,
2013-04-21 13:16:00,53.2,24.9,30.31,ESE,112,0.0,9.2,33,0.00,,SCT100,0.00,VWS V14.01,2013-04-21 18:16:00,
2013-04-21 13:17:00,53.2,24.9,30.31,ESE,112,0.0,0.0,33,0.00,,SCT100,0.00,VWS V14.01,2013-04-21 18:17:00,
2013-04-21 13:18:00,53.2,24.9,30.32,South,180,0.0,0.0,33,0.00,,SCT100,0.00,VWS V14.01,2013-04-21 18:18:00,
2013-04-21 13:20:00,53.2,24.9,30.31,SE,135,13.8,13.8,33,0.00,,SCT100,0.00,VWS V14.01,2013-04-21 18:20:00,
2013-04-21 13:23:00,53.2,24.9,30.32,SSW,202,8.8,8.8,33,0.00,,SCT100,0.00,VWS V14.01,2013-04-21 18:23:00,
2013-04-21 13:24:00,53.0,25.4,30.31,SSE,158,5.2,8.8,34,0.00,,SCT100,0.00,VWS V14.01,2013-04-21 18:24:00,
2013-04-21 13:25:00,53.0,25.4,30.31,SSE,158,5.2,5.2,34,0.00,,SCT100,0.00,VWS V14.01,2013-04-21 18:25:00,
2013-04-21 13:26:00,53.0,25.4,30.31,SE,135,2.6,5.2,34,0.00,,SCT100,0.00,VWS V14.01,2013-04-21 18:26:00,
2013-04-21 13:28:00,52.8,25.2,30.31,SE,135,7.0,8.0,34,0.00,,SCT100,0.00,VWS V14.01,2013-04-21 18:28:00,
2013-04-21 13:29:00,52.8,25.2,30.31,SE,135,7.0,7.0,34,0.00,,SCT100,0.00,VWS V14.01,2013-04-21 18:29:00,
2013-04-21 13:32:00,53.2,26.3,30.30,ESE,112,10.2,10.2,35,0.00,,SCT100,0.00,VWS V14.01,2013-04-21 18:32:00,
2013-04-21 13:33:00,53.2,26.3,30.31,South,180,5.8,5.8,35,0.00,,SCT100,0.00,VWS V14.01,2013-04-21 18:33:00,
2013-04-21 13:37:00,54.3,27.2,30.31,SE,135,14.6,14.6,35,0.00,,SCT100,0.00,VWS V14.01,2013-04-21 18:37:00,
2013-04-21 13:38:00,54.3,27.2,30.31,SSE,158,2.2,14.6,35,0.00,,SCT100,0.00,VWS V14.01,2013-04-21 18:38:00,
2013-04-21 13:39:00,54.6,27.5,30.31,East,90,9.2,9.2,35,0.00,,SCT100,0.00,VWS V14.01,2013-04-21 18:39:00,
2013-04-21 13:40:00,54.6,26.8,30.31,SSW,202,3.0,9.2,34,0.00,,SCT100,0.00,VWS V14.01,2013-04-21 18:40:00,
2013-04-21 13:43:00,55.2,27.3,30.30,SW,225,9.8,9.8,34,0.00,,SCT100,0.00,VWS V14.01,2013-04-21 18:43:00,
2013-04-21 13:44:00,55.4,26.8,30.30,ESE,112,0.0,9.8,33,0.00,,SCT100,0.00,VWS V14.01,2013-04-21 18:44:00,
2013-04-21 13:45:00,55.4,26.8,30.30,SE,135,12.4,12.4,33,0.00,,SCT100,0.00,VWS V14.01,2013-04-21 18:45:00,
2013-04-21 13:46:00,55.4,26.8,30.30,ESE,112,2.2,12.4,33,0.00,,SCT100,0.00,VWS V14.01,2013-04-21 18:46:00,
2013-04-21 13:48:00,55.7,27.1,30.30,SSE,158,8.0,17.4,33,0.00,,SCT100,0.00,VWS V14.01,2013-04-21 18:48:00,
2013-04-21 13:50:00,55.7,27.1,30.30,SSE,158,2.2,10.2,33,0.00,,BKN100,0.00,VWS V14.01,2013-04-21 18:50:00,
2013-04-21 13:51:00,55.7,27.1,30.30,SE,135,4.4,4.4,33,0.00,,BKN100,0.00,VWS V14.01,2013-04-21 18:51:00,
2013-04-21 13:53:00,56.1,27.4,30.30,South,180,3.4,3.4,33,0.00,,BKN100,0.00,VWS V14.01,2013-04-21 18:53:00,
2013-04-21 13:54:00,55.7,26.3,30.29,South,180,11.0,11.0,32,0.00,,BKN100,0.00,VWS V14.01,2013-04-21 18:54:00,
2013-04-21 13:55:00,55.7,26.3,30.29,South,180,11.0,11.0,32,0.00,,BKN100,0.00,VWS V14.01,2013-04-21 18:55:00,
2013-04-21 13:57:00,55.4,26.0,30.29,SSE,158,6.2,6.2,32,0.00,,BKN100,0.00,VWS V14.01,2013-04-21 18:57:00,
2013-04-21 13:58:00,55.2,25.1,30.29,ESE,112,7.6,7.6,31,0.00,,BKN100,0.00,VWS V14.01,2013-04-21 18:58:00,
2013-04-21 14:01:00,55.0,24.9,30.29,ESE,112,7.6,7.6,31,0.00,,BKN100,0.00,VWS V14.01,2013-04-21 19:01:00,
2013-04-21 14:02:00,55.0,26.5,30.29,SE,135,5.2,7.6,33,0.00,,BKN100,0.00,VWS V14.01,2013-04-21 19:02:00,
2013-04-21 14:03:00,54.8,25.5,30.30,SE,135,4.8,4.8,32,0.00,,BKN100,0.00,VWS V14.01,2013-04-21 19:03:00,
2013-04-21 14:04:00,54.6,25.4,30.30,SW,225,8.0,8.0,32,0.00,,BKN100,0.00,VWS V14.01,2013-04-21 19:04:00,
2013-04-21 14:06:00,54.6,25.4,30.29,SSE,158,0.0,0.0,32,0.00,,BKN100,0.00,VWS V14.01,2013-04-21 19:06:00,
2013-04-21 14:08:00,54.6,26.1,30.30,ESE,112,0.0,5.2,33,0.00,,BKN100,0.00,VWS V14.01,2013-04-21 19:08:00,
2013-04-21 14:10:00,54.6,26.1,30.30,South,180,5.2,5.8,33,0.00,,BKN100,0.00,VWS V14.01,2013-04-21 19:10:00,
2013-04-21 14:11:00,54.5,26.0,30.29,East,90,8.4,8.4,33,0.00,,BKN100,0.00,VWS V14.01,2013-04-21 19:11:00,
2013-04-21 14:14:00,54.6,26.8,30.29,ESE,112,4.0,14.6,34,0.00,,BKN100,0.00,VWS V14.01,2013-04-21 19:14:00,
2013-04-21 14:15:00,54.8,27.0,30.29,SSW,202,8.4,8.4,34,0.00,,BKN100,0.00,VWS V14.01,2013-04-21 19:15:00,
2013-04-21 14:16:00,54.8,27.0,30.29,South,180,0.0,8.4,34,0.00,,BKN100,0.00,VWS V14.01,2013-04-21 19:16:00,
2013-04-21 14:20:00,54.8,27.0,30.29,ESE,112,6.2,9.2,34,0.00,,BKN100,0.00,VWS V14.01,2013-04-21 19:20:00,
2013-04-21 14:21:00,54.8,27.0,30.29,SE,135,10.6,10.6,34,0.00,,BKN100,0.00,VWS V14.01,2013-04-21 19:21:00,
2013-04-21 14:25:00,55.5,28.3,30.29,SW,225,2.6,2.6,35,0.00,,BKN100,0.00,VWS V14.01,2013-04-21 19:25:00,
2013-04-21 14:26:00,56.1,28.8,30.29,East,90,10.6,20.4,35,0.00,,BKN100,0.00,VWS V14.01,2013-04-21 19:26:00,
2013-04-21 14:27:00,56.1,28.8,30.29,East,90,10.6,10.6,35,0.00,,BKN100,0.00,VWS V14.01,2013-04-21 19:27:00,
2013-04-21 14:28:00,56.8,29.5,30.28,SW,225,14.2,14.2,35,0.00,,BKN100,0.00,VWS V14.01,2013-04-21 19:28:00,
2013-04-21 14:29:00,56.8,29.5,30.28,SW,225,14.2,14.2,35,0.00,,BKN100,0.00,VWS V14.01,2013-04-21 19:29:00,
2013-04-21 14:33:00,57.3,28.5,30.29,SW,225,12.4,12.4,33,0.00,,BKN100,0.00,VWS V14.01,2013-04-21 19:33:00,
2013-04-21 14:34:00,57.5,28.6,30.29,South,180,0.0,12.4,33,0.00,,BKN100,0.00,VWS V14.01,2013-04-21 19:34:00,
2013-04-21 14:35:00,57.5,28.6,30.28,SSE,158,12.0,12.0,33,0.00,,BKN100,0.00,VWS V14.01,2013-04-21 19:35:00,
2013-04-21 14:36:00,57.5,27.9,30.29,WNW,292,8.4,13.8,32,0.00,,BKN100,0.00,VWS V14.01,2013-04-21 19:36:00,
2013-04-21 14:40:00,57.3,27.0,30.29,SE,135,12.8,12.8,31,0.00,,BKN100,0.00,VWS V14.01,2013-04-21 19:40:00,
2013-04-21 14:41:00,57.3,27.0,30.28,SE,135,8.0,8.0,31,0.00,,BKN100,0.00,VWS V14.01,2013-04-21 19:41:00,
2013-04-21 14:42:00,57.3,27.0,30.28,SSW,202,4.0,8.4,31,0.00,,BKN100,0.00,VWS V14.01,2013-04-21 19:42:00,
2013-04-21 14:43:00,57.3,27.0,30.28,SSW,202,4.0,4.0,31,0.00,,BKN100,0.00,VWS V14.01,2013-04-21 19:43:00,
2013-04-21 14:46:00,57.9,28.2,30.27,SW,225,5.8,5.8,32,0.00,,BKN100,0.00,VWS V14.01,2013-04-21 19:46:00,
2013-04-21 14:47:00,57.9,28.2,30.27,SE,135,11.6,11.6,32,0.00,,BKN100,0.00,VWS V14.01,2013-04-21 19:47:00,
2013-04-21 14:48:00,58.1,28.4,30.27,SW,225,12.8,12.8,32,0.00,,BKN100,0.00,VWS V14.01,2013-04-21 19:48:00,
2013-04-21 14:52:00,58.4,27.9,30.27,ESE,112,0.0,9.8,31,0.00,,FEW080,0.00,VWS V14.01,2013-04-21 19:52:00,
2013-04-21 14:54:00,58.6,28.1,30.27,ENE,68,7.0,9.8,31,0.00,,FEW080,0.00,VWS V14.01,2013-04-21 19:54:00,
2013-04-21 14:55:00,58.6,28.1,30.27,SE,135,4.4,4.4,31,0.00,,FEW080,0.00,VWS V14.01,2013-04-21 19:55:00,
2013-04-21 14:57:00,58.6,27.3,30.27,SSE,158,9.2,9.2,30,0.00,,FEW080,0.00,VWS V14.01,2013-04-21 19:57:00,
2013-04-21 14:58:00,58.6,27.3,30.27,SSE,158,7.6,9.2,30,0.00,,FEW080,0.00,VWS V14.01,2013-04-21 19:58:00,
2013-04-21 15:00:00,58.6,27.3,30.27,SE,135,9.2,11.6,30,0.00,,FEW080,0.00,VWS V14.01,2013-04-21 20:00:00,
2013-04-21 15:01:00,58.6,27.3,30.27,SE,135,9.2,9.2,30,0.00,,FEW080,0.00,VWS V14.01,2013-04-21 20:01:00,
2013-04-21 15:02:00,58.6,27.3,30.27,SE,135,15.2,15.2,30,0.00,,FEW080,0.00,VWS V14.01,2013-04-21 20:02:00,
2013-04-21 15:04:00,58.4,27.1,30.27,South,180,10.6,17.0,30,0.00,,FEW080,0.00,VWS V14.01,2013-04-21 20:04:00,
2013-04-21 15:06:00,58.2,26.9,30.27,SSW,202,4.4,12.8,30,0.00,,FEW080,0.00,VWS V14.01,2013-04-21 20:06:00,
2013-04-21 15:07:00,58.4,27.1,30.27,SSW,202,11.0,11.0,30,0.00,,FEW080,0.00,VWS V14.01,2013-04-21 20:07:00,
2013-04-21 15:11:00,58.4,27.1,30.26,ESE,112,18.2,18.2,30,0.00,,FEW080,0.00,VWS V14.01,2013-04-21 20:11:00,
2013-04-21 15:12:00,58.6,27.3,30.26,East,90,12.0,12.0,30,0.00,,FEW080,0.00,VWS V14.01,2013-04-21 20:12:00,
2013-04-21 15:16:00,59.0,28.4,30.26,SSE,158,0.0,0.0,31,0.00,,FEW080,0.00,VWS V14.01,2013-04-21 20:16:00,
2013-04-21 15:17:00,59.1,29.3,30.26,SE,135,9.2,9.2,32,0.00,,FEW080,0.00,VWS V14.01,2013-04-21 20:17:00,
2013-04-21 15:18:00,59.3,28.7,30.26,WSW,248,8.8,9.2,31,0.00,,FEW080,0.00,VWS V14.01,2013-04-21 20:18:00,
2013-04-21 15:21:00,59.3,28.7,30.26,SSE,158,7.0,14.2,31,0.00,,FEW080,0.00,VWS V14.01,2013-04-21 20:21:00,
2013-04-21 15:22:00,59.1,28.5,30.26,SSE,158,5.8,14.2,31,0.00,,FEW080,0.00,VWS V14.01,2013-04-21 20:22:00,
2013-04-21 15:26:00,58.8,27.5,30.26,SW,225,10.2,10.2,30,0.00,,FEW080,0.00,VWS V14.01,2013-04-21 20:26:00,
2013-04-21 15:27:00,58.8,27.5,30.25,SSW,202,2.6,10.2,30,0.00,,FEW080,0.00,VWS V14.01,2013-04-21 20:27:00,
2013-04-21 15:28:00,58.6,27.3,30.26,South,180,15.6,15.6,30,0.00,,FEW080,0.00,VWS V14.01,2013-04-21 20:28:00,
2013-04-21 15:32:00,58.8,28.3,30.25,ESE,112,2.6,6.6,31,0.00,,FEW080,0.00,VWS V14.01,2013-04-21 20:32:00,
2013-04-21 15:33:00,58.8,28.3,30.26,SSW,202,10.2,10.2,31,0.00,,FEW080,0.00,VWS V14.01,2013-04-21 20:33:00,
2013-04-21 15:34:00,59.0,28.4,30.25,SSW,202,5.8,10.2,31,0.00,,FEW080,0.00,VWS V14.01,2013-04-21 20:34:00,
2013-04-21 15:36:00,58.8,27.5,30.25,SSW,202,0.0,0.0,30,0.00,,FEW080,0.00,VWS V14.01,2013-04-21 20:36:00,
2013-04-21 15:37:00,58.8,28.3,30.25,SE,135,6.6,6.6,31,0.00,,FEW080,0.00,VWS V14.01,2013-04-21 20:37:00,
2013-04-21 15:39:00,58.8,28.3,30.25,South,180,4.8,4.8,31,0.00,,FEW080,0.00,VWS V14.01,2013-04-21 20:39:00,
2013-04-21 15:40:00,58.6,27.3,30.25,ESE,112,8.8,8.8,30,0.00,,FEW080,0.00,VWS V14.01,2013-04-21 20:40:00,
2013-04-21 15:44:00,58.6,28.1,30.25,SSE,158,6.2,6.2,31,0.00,,FEW080,0.00,VWS V14.01,2013-04-21 20:44:00,
2013-04-21 15:45:00,59.0,28.4,30.25,South,180,0.0,6.2,31,0.00,,FEW080,0.00,VWS V14.01,2013-04-21 20:45:00,
2013-04-21 15:46:00,58.8,28.3,30.25,SSW,202,0.0,6.2,31,0.00,,FEW080,0.00,VWS V14.01,2013-04-21 20:46:00,
2013-04-21 15:47:00,59.1,29.3,30.25,South,180,0.0,0.0,32,0.00,,FEW080,0.00,VWS V14.01,2013-04-21 20:47:00,
2013-04-21 15:50:00,59.1,28.5,30.25,SSE,158,5.2,10.2,31,0.00,,FEW080,0.00,VWS V14.01,2013-04-21 20:50:00,
2013-04-21 15:51:00,59.1,28.5,30.24,ESE,112,10.2,10.2,31,0.00,,FEW080,0.00,VWS V14.01,2013-04-21 20:51:00,
2013-04-21 15:53:00,59.3,29.5,30.25,SW,225,2.6,3.4,32,0.00,,FEW080,0.00,VWS V14.01,2013-04-21 20:53:00,
2013-04-21 15:55:00,59.5,29.6,30.24,ESE,112,2.6,2.6,32,0.00,,FEW080,0.00,VWS V14.01,2013-04-21 20:55:00,
2013-04-21 15:57:00,59.7,29.8,30.24,South,180,0.4,8.0,32,0.00,,FEW080,0.00,VWS V14.01,2013-04-21 20:57:00,
2013-04-21 15:58:00,59.7,29.8,30.24,ESE,112,11.6,11.6,32,0.00,,FEW080,0.00,VWS V14.01,2013-04-21 20:58:00,
2013-04-21 16:00:00,59.7,29.0,30.24,WNW,292,0.0,11.6,31,0.00,,FEW080,0.00,VWS V14.01,2013-04-21 21:00:00,
2013-04-21 16:02:00,59.7,29.0,30.25,SE,135,4.0,10.6,31,0.00,,FEW080,0.00,VWS V14.01,2013-04-21 21:02:00,
2013-04-21 16:03:00,59.7,29.0,30.24,West,270,6.6,6.6,31,0.00,,FEW080,0.00,VWS V14.01,2013-04-21 21:03:00,
2013-04-21 16:05:00,59.7,29.0,30.24,East,90,2.2,12.4,31,0.00,,FEW080,0.00,VWS V14.01,2013-04-21 21:05:00,
2013-04-21 16:08:00,59.9,29.2,30.24,South,180,14.2,14.2,31,0.00,,FEW080,0.00,VWS V14.01,2013-04-21 21:08:00,
2013-04-21 16:09:00,59.7,29.0,30.24,ESE,112,8.8,14.2,31,0.00,,FEW080,0.00,VWS V14.01,2013-04-21 21:09:00,
2013-04-21 16:10:00,59.7,29.0,30.24,SE,135,14.2,14.2,31,0.00,,FEW080,0.00,VWS V14.01,2013-04-21 21:10:00,
2013-04-21 16:14:00,59.3,28.7,30.24,SSE,158,13.8,13.8,31,0.00,,FEW080,0.00,VWS V14.01,2013-04-21 21:14:00,
2013-04-21 16:15:00,59.3,28.7,30.24,SSE,158,13.8,13.8,31,0.00,,FEW080,0.00,VWS V14.01,2013-04-21 21:15:00,
2013-04-21 16:16:00,59.3,28.7,30.24,SSE,158,10.2,13.8,31,0.00,,FEW080,0.00,VWS V14.01,2013-04-21 21:16:00,
2013-04-21 16:18:00,59.3,28.7,30.24,South,180,11.6,11.6,31,0.00,,FEW080,0.00,VWS V14.01,2013-04-21 21:18:00,
2013-04-21 16:20:00,59.3,28.7,30.24,SSW,202,8.0,16.0,31,0.00,,FEW090,0.00,VWS V14.01,2013-04-21 21:20:00,
2013-04-21 16:21:00,59.3,28.7,30.24,SSW,202,8.0,8.0,31,0.00,,FEW090,0.00,VWS V14.01,2013-04-21 21:21:00,
2013-04-21 16:22:00,59.5,28.9,30.24,SE,135,12.4,12.4,31,0.00,,FEW090,0.00,VWS V14.01,2013-04-21 21:22:00,
2013-04-21 16:24:00,59.5,28.9,30.24,SE,135,17.0,17.0,31,0.00,,FEW090,0.00,VWS V14.01,2013-04-21 21:24:00,
2013-04-21 16:26:00,59.5,28.9,30.24,SE,135,5.8,5.8,31,0.00,,FEW090,0.00,VWS V14.01,2013-04-21 21:26:00,
2013-04-21 16:27:00,59.5,28.9,30.24,SSE,158,10.2,10.2,31,0.00,,FEW090,0.00,VWS V14.01,2013-04-21 21:27:00,
2013-04-21 16:30:00,59.3,28.7,30.23,South,180,9.2,9.8,31,0.00,,FEW090,0.00,VWS V14.01,2013-04-21 21:30:00,
2013-04-21 16:32:00,59.1,28.5,30.23,SE,135,12.0,18.6,31,0.00,,FEW090,0.00,VWS V14.01,2013-04-21 21:32:00,
2013-04-21 16:33:00,59.1,28.5,30.24,SSW,202,9.2,9.2,31,0.00,,FEW090,0.00,VWS V14.01,2013-04-21 21:33:00,
2013-04-21 16:38:00,59.1,28.5,30.23,SSE,158,13.4,13.4,31,0.00,,FEW090,0.00,VWS V14.01,2013-04-21 21:38:00,
2013-04-21 16:39:00,59.1,28.5,30.23,SSE,158,13.8,13.8,31,0.00,,FEW090,0.00,VWS V14.01,2013-04-21 21:39:00,
2013-04-21 16:40:00,59.1,29.3,30.23,ESE,112,7.0,13.8,32,0.00,,FEW090,0.00,VWS V14.01,2013-04-21 21:40:00,
2013-04-21 16:41:00,59.3,29.5,30.23,SSE,158,0.0,0.0,32,0.00,,FEW090,0.00,VWS V14.01,2013-04-21 21:41:00,
2013-04-21 16:42:00,59.3,29.5,30.23,South,180,4.4,4.4,32,0.00,,FEW090,0.00,VWS V14.01,2013-04-21 21:42:00,
2013-04-21 16:45:00,59.3,29.5,30.23,South,180,10.6,10.6,32,0.00,,FEW090,0.00,VWS V14.01,2013-04-21 21:45:00,
2013-04-21 16:46:00,59.3,29.5,30.23,South,180,10.6,10.6,32,0.00,,FEW090,0.00,VWS V14.01,2013-04-21 21:46:00,
2013-04-21 16:47:00,59.5,29.6,30.23,SSE,158,4.8,4.8,32,0.00,,FEW090,0.00,VWS V14.01,2013-04-21 21:47:00,
2013-04-21 16:50:00,59.5,29.6,30.23,SSE,158,13.4,13.4,32,0.00,,BKN085,0.00,VWS V14.01,2013-04-21 21:50:00,
2013-04-21 16:51:00,59.3,28.7,30.23,SSE,158,6.6,6.6,31,0.00,,BKN085,0.00,VWS V14.01,2013-04-21 21:51:00,
2013-04-21 16:52:00,59.5,28.9,30.23,SSW,202,4.8,6.6,31,0.00,,BKN085,0.00,VWS V14.01,2013-04-21 21:52:00,
2013-04-21 16:56:00,59.7,29.8,30.23,South,180,3.4,3.4,32,0.00,,BKN085,0.00,VWS V14.01,2013-04-21 21:56:00,
2013-04-21 16:57:00,59.7,29.8,30.23,SE,135,26.2,26.2,32,0.00,,BKN085,0.00,VWS V14.01,2013-04-21 21:57:00,
2013-04-21 16:58:00,59.7,29.0,30.23,SE,135,8.0,26.2,31,0.00,,BKN085,0.00,VWS V14.01,2013-04-21 21:58:00,
2013-04-21 17:02:00,59.9,30.0,30.23,South,180,1.6,1.6,32,0.00,,BKN085,0.00,VWS V14.01,2013-04-21 22:02:00,
2013-04-21 17:03:00,59.9,30.0,30.23,South,180,1.6,1.6,32,0.00,,BKN085,0.00,VWS V14.01,2013-04-21 22:03:00,
2013-04-21 17:04:00,59.9,30.0,30.23,ESE,112,9.2,9.2,32,0.00,,BKN085,0.00,VWS V14.01,2013-04-21 22:04:00,
2013-04-21 17:08:00,60.2,29.5,30.23,SSE,158,8.8,16.4,31,0.00,,BKN085,0.00,VWS V14.01,2013-04-21 22:08:00,
2013-04-21 17:09:00,60.2,29.5,30.23,SSE,158,8.8,8.8,31,0.00,,BKN085,0.00,VWS V14.01,2013-04-21 22:09:00,
2013-04-21 17:10:00,60.2,29.5,30.23,East,90,0.0,8.8,31,0.00,,BKN085,0.00,VWS V14.01,2013-04-21 22:10:00,
2013-04-21 17:14:00,60.2,29.5,30.22,SSE,158,9.2,12.8,31,0.00,,BKN085,0.00,VWS V14.01,2013-04-21 22:14:00,
2013-04-21 17:15:00,60.2,29.5,30.22,SSE,158,9.2,9.2,31,0.00,,BKN085,0.00,VWS V14.01,2013-04-21 22:15:00,
2013-04-21 17:16:00,59.9,29.2,30.22,ESE,112,0.0,9.2,31,0.00,,BKN085,0.00,VWS V14.01,2013-04-21 22:16:00,
2013-04-21 17:17:00,59.9,29.2,30.22,ESE,112,0.0,0.0,31,0.00,,BKN085,0.00,VWS V14.01,2013-04-21 22:17:00,
2013-04-21 17:18:00,60.2,29.5,30.23,SSE,158,11.0,11.6,31,0.00,,BKN085,0.00,VWS V14.01,2013-04-21 22:18:00,
2013-04-21 17:20:00,60.0,30.1,30.22,SE,135,9.8,11.0,32,0.00,,BKN085,0.00,VWS V14.01,2013-04-21 22:20:00,
2013-04-21 17:21:00,60.0,29.3,30.22,SSW,202,3.0,3.0,31,0.00,,BKN085,0.00,VWS V14.01,2013-04-21 22:21:00,
2013-04-21 17:24:00,60.2,29.5,30.22,South,180,11.0,11.0,31,0.00,,BKN085,0.00,VWS V14.01,2013-04-21 22:24:00,
2013-04-21 17:26:00,60.2,29.5,30.22,SSE,158,4.8,4.8,31,0.00,,BKN085,0.00,VWS V14.01,2013-04-21 22:26:00,
2013-04-21 17:27:00,60.4,29.6,30.22,SSE,158,11.6,11.6,31,0.00,,BKN085,0.00,VWS V14.01,2013-04-21 22:27:00,
2013-04-21 17:30:00,60.2,29.5,30.22,South,180,0.0,12.4,31,0.00,,BKN085,0.00,VWS V14.01,2013-04-21 22:30:00,
2013-04-21 17:32:00,60.2,29.5,30.22,WNW,292,4.4,4.4,31,0.00,,BKN085,0.00,VWS V14.01,2013-04-21 22:32:00,
2013-04-21 17:33:00,60.0,29.3,30.22,SSE,158,0.0,0.0,31,0.00,,BKN085,0.00,VWS V14.01,2013-04-21 22:33:00,
2013-04-21 17:34:00,59.9,29.2,30.22,SSE,158,0.0,0.0,31,0.00,,BKN085,0.00,VWS V14.01,2013-04-21 22:34:00,
2013-04-21 17:37:00,59.9,29.2,30.22,SW,225,8.8,8.8,31,0.00,,BKN085,0.00,VWS V14.01,2013-04-21 22:37:00,
2013-04-21 17:38:00,60.0,29.3,30.22,SSE,158,7.6,8.8,31,0.00,,BKN085,0.00,VWS V14.01,2013-04-21 22:38:00,
2013-04-21 17:39:00,59.9,29.2,30.22,SSW,202,9.8,9.8,31,0.00,,BKN085,0.00,VWS V14.01,2013-04-21 22:39:00,
2013-04-21 17:42:00,60.0,29.3,30.22,ESE,112,4.0,4.0,31,0.00,,BKN085,0.00,VWS V14.01,2013-04-21 22:42:00,
2013-04-21 17:44:00,60.0,29.3,30.22,SE,135,8.0,8.0,31,0.00,,BKN085,0.00,VWS V14.01,2013-04-21 22:44:00,
2013-04-21 17:45:00,60.0,29.3,30.22,SE,135,0.0,0.0,31,0.00,,BKN085,0.00,VWS V14.01,2013-04-21 22:45:00,
2013-04-21 17:46:00,60.0,30.1,30.22,SSE,158,6.6,14.2,32,0.00,,BKN085,0.00,VWS V14.01,2013-04-21 22:46:00,
2013-04-21 17:48:00,60.2,30.2,30.22,ESE,112,12.8,12.8,32,0.00,,BKN085,0.00,VWS V14.01,2013-04-21 22:48:00,
2013-04-21 17:49:00,60.2,30.2,30.22,ESE,112,12.8,12.8,32,0.00,,BKN085,0.00,VWS V14.01,2013-04-21 22:49:00,
2013-04-21 17:50:00,59.9,29.2,30.22,SSW,202,11.6,12.8,31,0.00,,CLR,0.00,VWS V14.01,2013-04-21 22:50:00,
2013-04-21 17:52:00,59.9,29.2,30.22,South,180,12.4,12.8,31,0.00,,CLR,0.00,VWS V14.01,2013-04-21 22:52:00,
2013-04-21 17:54:00,59.9,29.2,30.22,South,180,6.2,12.4,31,0.00,,CLR,0.00,VWS V14.01,2013-04-21 22:54:00,
2013-04-21 17:56:00,59.9,29.2,30.22,South,180,12.0,12.0,31,0.00,,CLR,0.00,VWS V14.01,2013-04-21 22:56:00,
2013-04-21 17:57:00,59.9,30.0,30.22,SSE,158,0.0,0.0,32,0.00,,CLR,0.00,VWS V14.01,2013-04-21 22:57:00,
2013-04-21 17:59:00,59.7,29.8,30.22,South,180,8.8,8.8,32,0.00,,CLR,0.00,VWS V14.01,2013-04-21 22:59:00,
2013-04-21 18:00:00,59.7,29.8,30.22,SSW,202,3.4,8.8,32,0.00,,CLR,0.00,VWS V14.01,2013-04-21 23:00:00,
2013-04-21 18:02:00,59.7,29.8,30.22,South,180,8.4,8.4,32,0.00,,CLR,0.00,VWS V14.01,2013-04-21 23:02:00,
2013-04-21 18:04:00,59.7,29.8,30.22,SE,135,0.0,8.4,32,0.00,,CLR,0.00,VWS V14.01,2013-04-21 23:04:00,
2013-04-21 18:08:00,59.7,29.8,30.21,SE,135,0.0,3.4,32,0.00,,CLR,0.00,VWS V14.01,2013-04-21 23:08:00,
2013-04-21 18:10:00,59.7,29.8,30.22,ESE,112,10.6,10.6,32,0.00,,CLR,0.00,VWS V14.01,2013-04-21 23:10:00,
2013-04-21 18:11:00,59.7,29.8,30.21,SSE,158,2.6,2.6,32,0.00,,CLR,0.00,VWS V14.01,2013-04-21 23:11:00,
2013-04-21 18:12:00,59.7,29.8,30.22,SE,135,8.4,8.4,32,0.00,,CLR,0.00,VWS V14.01,2013-04-21 23:12:00,
2013-04-21 18:14:00,59.5,29.6,30.21,SSE,158,0.0,13.8,32,0.00,,CLR,0.00,VWS V14.01,2013-04-21 23:14:00,
2013-04-21 18:15:00,59.5,29.6,30.21,SE,135,3.4,3.4,32,0.00,,CLR,0.00,VWS V14.01,2013-04-21 23:15:00,
2013-04-21 18:16:00,59.3,29.5,30.21,SW,225,12.4,12.4,32,0.00,,CLR,0.00,VWS V14.01,2013-04-21 23:16:00,
2013-04-21 18:18:00,59.1,29.3,30.21,ESE,112,12.0,12.4,32,0.00,,CLR,0.00,VWS V14.01,2013-04-21 23:18:00,
2013-04-21 18:19:00,59.1,29.3,30.21,ESE,112,12.0,12.0,32,0.00,,CLR,0.00,VWS V14.01,2013-04-21 23:19:00,
2013-04-21 18:22:00,59.3,30.2,30.21,SSW,202,11.6,11.6,33,0.00,,CLR,0.00,VWS V14.01,2013-04-21 23:22:00,
2013-04-21 18:24:00,59.3,30.2,30.21,SE,135,4.0,5.2,33,0.00,,CLR,0.00,VWS V14.01,2013-04-21 23:24:00,
2013-04-21 18:25:00,59.3,30.2,30.21,SE,135,4.0,4.0,33,0.00,,CLR,0.00,VWS V14.01,2013-04-21 23:25:00,
2013-04-21 18:28:00,59.3,30.2,30.21,West,270,0.0,11.0,33,0.00,,CLR,0.00,VWS V14.01,2013-04-21 23:28:00,
2013-04-21 18:30:00,59.1,30.0,30.21,SW,225,3.4,3.4,33,0.00,,CLR,0.00,VWS V14.01,2013-04-21 23:30:00,
2013-04-21 18:34:00,58.6,29.6,30.21,SE,135,18.6,18.6,33,0.00,,CLR,0.00,VWS V14.01,2013-04-21 23:34:00,
2013-04-21 18:36:00,58.6,29.6,30.21,South,180,5.8,18.6,33,0.00,,CLR,0.00,VWS V14.01,2013-04-21 23:36:00,
2013-04-21 18:37:00,58.4,29.4,30.21,SE,135,2.6,2.6,33,0.00,,CLR,0.00,VWS V14.01,2013-04-21 23:37:00,
2013-04-21 18:38:00,58.4,30.2,30.21,South,180,3.0,3.0,34,0.00,,CLR,0.00,VWS V14.01,2013-04-21 23:38:00,
2013-04-21 18:41:00,58.2,30.0,30.21,SSE,158,10.6,10.6,34,0.00,,CLR,0.00,VWS V14.01,2013-04-21 23:41:00,
2013-04-21 18:42:00,58.1,29.9,30.21,South,180,4.0,10.6,34,0.00,,CLR,0.00,VWS V14.01,2013-04-21 23:42:00,
2013-04-21 18:46:00,57.9,31.1,30.21,East,90,2.2,14.6,36,0.00,,CLR,0.00,VWS V14.01,2013-04-21 23:46:00,
2013-04-21 18:47:00,57.9,31.1,30.21,East,90,2.2,2.2,36,0.00,,CLR,0.00,VWS V14.01,2013-04-21 23:47:00,
2013-04-21 18:48:00,57.9,31.1,30.21,ESE,112,8.8,8.8,36,0.00,,CLR,0.00,VWS V14.01,2013-04-21 23:48:00,
2013-04-21 18:52:00,57.3,30.6,30.21,SSE,158,0.0,9.8,36,0.00,,CLR,0.00,VWS V14.01,2013-04-21 23:52:00,
2013-04-21 18:53:00,57.3,30.6,30.21,South,180,11.6,11.6,36,0.00,,CLR,0.00,VWS V14.01,2013-04-21 23:53:00,
2013-04-21 18:54:00,57.3,30.6,30.21,NNE,22,2.2,11.6,36,0.00,,CLR,0.00,VWS V14.01,2013-04-21 23:54:00,
2013-04-21 18:56:00,57.3,31.3,30.21,South,180,15.2,16.4,37,0.00,,CLR,0.00,VWS V14.01,2013-04-21 23:56:00,
2013-04-21 18:58:00,57.2,31.2,30.21,ESE,112,0.0,15.2,37,0.00,,CLR,0.00,VWS V14.01,2013-04-21 23:58:00,
2013-04-21 19:00:00,56.8,30.8,30.21,SE,135,6.2,12.8,37,0.00,,CLR,0.00,VWS V14.01,2013-04-22 00:00:00,
2013-04-21 19:01:00,56.8,30.8,30.21,SE,135,6.2,6.2,37,0.00,,CLR,0.00,VWS V14.01,2013-04-22 00:01:00,
2013-04-21 19:02:00,56.8,30.8,30.20,ESE,112,13.8,13.8,37,0.00,,CLR,0.00,VWS V14.01,2013-04-22 00:02:00,
2013-04-21 19:04:00,56.8,30.8,30.21,ESE,112,13.8,13.8,37,0.00,,CLR,0.00,VWS V14.01,2013-04-22 00:04:00,
2013-04-21 19:05:00,56.8,30.8,30.21,WSW,248,5.2,5.2,37,0.00,,CLR,0.00,VWS V14.01,2013-04-22 00:05:00,
2013-04-21 19:07:00,56.6,30.6,30.21,ESE,112,14.6,14.6,37,0.00,,CLR,0.00,VWS V14.01,2013-04-22 00:07:00,
2013-04-21 19:08:00,56.6,30.6,30.21,SSE,158,9.2,14.6,37,0.00,,CLR,0.00,VWS V14.01,2013-04-22 00:08:00,
2013-04-21 19:09:00,56.4,30.5,30.21,East,90,11.0,11.0,37,0.00,,CLR,0.00,VWS V14.01,2013-04-22 00:09:00,
2013-04-21 19:10:00,56.4,30.5,30.21,SSE,158,4.0,11.0,37,0.00,,CLR,0.00,VWS V14.01,2013-04-22 00:10:00,
2013-04-21 19:14:00,56.3,30.4,30.21,ESE,112,9.8,9.8,37,0.00,,CLR,0.00,VWS V14.01,2013-04-22 00:14:00,
2013-04-21 19:18:00,56.3,31.0,30.21,South,180,6.6,6.6,38,0.00,,CLR,0.00,VWS V14.01,2013-04-22 00:18:00,
2013-04-21 19:21:00,56.1,31.5,30.21,SSW,202,15.6,15.6,39,0.00,,CLR,0.00,VWS V14.01,2013-04-22 00:21:00,
2013-04-21 19:22:00,56.1,31.5,30.22,SSE,158,8.4,15.6,39,0.00,,CLR,0.00,VWS V14.01,2013-04-22 00:22:00,
2013-04-21 19:24:00,56.1,31.5,30.22,South,180,4.8,8.4,39,0.00,,CLR,0.00,VWS V14.01,2013-04-22 00:24:00,
2013-04-21 19:26:00,55.9,31.3,30.22,SSE,158,0.0,4.8,39,0.00,,CLR,0.00,VWS V14.01,2013-04-22 00:26:00,
2013-04-21 19:28:00,55.7,31.1,30.22,ESE,112,5.2,11.6,39,0.00,,CLR,0.00,VWS V14.01,2013-04-22 00:28:00,
2013-04-21 19:29:00,55.7,31.1,30.22,South,180,1.2,5.2,39,0.00,,CLR,0.00,VWS V14.01,2013-04-22 00:29:00,
2013-04-21 19:32:00,55.7,31.8,30.22,SW,225,12.8,12.8,40,0.00,,CLR,0.00,VWS V14.01,2013-04-22 00:32:00,
2013-04-21 19:33:00,55.7,31.8,30.22,SSE,158,0.0,12.8,40,0.00,,CLR,0.00,VWS V14.01,2013-04-22 00:33:00,
2013-04-21 19:34:00,55.5,31.6,30.22,ESE,112,10.6,10.6,40,0.00,,CLR,0.00,VWS V14.01,2013-04-22 00:34:00,
2013-04-21 19:35:00,55.5,31.6,30.22,South,180,10.2,10.6,40,0.00,,CLR,0.00,VWS V14.01,2013-04-22 00:35:00,
2013-04-21 19:36:00,55.5,31.6,30.22,SW,225,10.6,10.6,40,0.00,,CLR,0.00,VWS V14.01,2013-04-22 00:36:00,
2013-04-21 19:40:00,55.4,32.1,30.22,SE,135,14.2,14.2,41,0.00,,CLR,0.00,VWS V14.01,2013-04-22 00:40:00,
2013-04-21 19:41:00,55.4,32.1,30.22,SE,135,13.8,14.2,41,0.00,,CLR,0.00,VWS V14.01,2013-04-22 00:41:00,
2013-04-21 19:42:00,55.4,32.1,30.22,SW,225,7.6,14.2,41,0.00,,CLR,0.00,VWS V14.01,2013-04-22 00:42:00,
2013-04-21 19:46:00,55.2,31.9,30.22,East,90,4.0,4.8,41,0.00,,CLR,0.00,VWS V14.01,2013-04-22 00:46:00,
2013-04-21 19:47:00,55.0,31.8,30.22,South,180,16.4,16.4,41,0.00,,CLR,0.00,VWS V14.01,2013-04-22 00:47:00,
2013-04-21 19:48:00,55.0,31.8,30.23,South,180,6.2,16.4,41,0.00,,CLR,0.00,VWS V14.01,2013-04-22 00:48:00,
2013-04-21 19:52:00,55.0,31.8,30.23,SW,225,3.0,3.0,41,0.00,,CLR,0.00,VWS V14.01,2013-04-22 00:52:00,
2013-04-21 19:53:00,55.0,32.3,30.23,South,180,10.6,10.6,42,0.00,,CLR,0.00,VWS V14.01,2013-04-22 00:53:00,
2013-04-21 19:54:00,55.0,32.3,30.23,SSW,202,0.0,10.6,42,0.00,,CLR,0.00,VWS V14.01,2013-04-22 00:54:00,
2013-04-21 19:56:00,55.0,32.3,30.22,SSW,202,0.0,0.0,42,0.00,,CLR,0.00,VWS V14.01,2013-04-22 00:56:00,
2013-04-21 19:57:00,55.0,32.3,30.22,SSE,158,5.8,5.8,42,0.00,,CLR,0.00,VWS V14.01,2013-04-22 00:57:00,
2013-04-21 19:58:00,54.8,32.2,30.23,South,180,11.0,11.0,42,0.00,,CLR,0.00,VWS V14.01,2013-04-22 00:58:00,
2013-04-21 20:02:00,54.8,32.2,30.22,SE,135,0.0,4.4,42,0.00,,CLR,0.00,VWS V14.01,2013-04-22 01:02:00,
2013-04-21 20:05:00,54.8,32.2,30.22,SE,135,6.2,6.2,42,0.00,,CLR,0.00,VWS V14.01,2013-04-22 01:05:00,
2013-04-21 20:06:00,54.8,32.2,30.22,SSE,158,6.2,6.2,42,0.00,,CLR,0.00,VWS V14.01,2013-04-22 01:06:00,
2013-04-21 20:08:00,54.8,32.8,30.22,SSE,158,9.8,11.6,43,0.00,,CLR,0.00,VWS V14.01,2013-04-22 01:08:00,
2013-04-21 20:11:00,54.6,32.6,30.22,SSW,202,2.6,2.6,43,0.00,,CLR,0.00,VWS V14.01,2013-04-22 01:11:00,
2013-04-21 20:12:00,54.5,32.5,30.22,ESE,112,5.8,8.0,43,0.00,,CLR,0.00,VWS V14.01,2013-04-22 01:12:00,
2013-04-21 20:14:00,54.5,32.5,30.23,SSE,158,0.0,7.6,43,0.00,,CLR,0.00,VWS V14.01,2013-04-22 01:14:00,
2013-04-21 20:16:00,54.5,32.5,30.23,SSE,158,7.0,7.0,43,0.00,,CLR,0.00,VWS V14.01,2013-04-22 01:16:00,
2013-04-21 20:18:00,54.5,32.5,30.22,SSE,158,6.2,11.6,43,0.00,,CLR,0.00,VWS V14.01,2013-04-22 01:18:00,
2013-04-21 20:19:00,54.5,32.5,30.22,SSE,158,6.2,6.2,43,0.00,,CLR,0.00,VWS V14.01,2013-04-22 01:19:00,
2013-04-21 20:22:00,54.5,32.5,30.22,ESE,112,8.8,8.8,43,0.00,,CLR,0.00,VWS V14.01,2013-04-22 01:22:00,
2013-04-21 20:24:00,54.3,32.3,30.22,ESE,112,11.6,11.6,43,0.00,,CLR,0.00,VWS V14.01,2013-04-22 01:24:00,
2013-04-21 20:25:00,54.3,32.3,30.22,SW,225,2.6,2.6,43,0.00,,CLR,0.00,VWS V14.01,2013-04-22 01:25:00,
2013-04-21 20:26:00,54.3,32.9,30.22,SE,135,0.0,2.6,44,0.00,,CLR,0.00,VWS V14.01,2013-04-22 01:26:00,
2013-04-21 20:27:00,54.3,32.9,30.22,SE,135,0.0,0.0,44,0.00,,CLR,0.00,VWS V14.01,2013-04-22 01:27:00,
2013-04-21 20:28:00,54.3,32.9,30.23,South,180,8.4,8.4,44,0.00,,CLR,0.00,VWS V14.01,2013-04-22 01:28:00,
2013-04-21 20:30:00,54.3,32.9,30.23,ESE,112,12.8,12.8,44,0.00,,CLR,0.00,VWS V14.01,2013-04-22 01:30:00,
2013-04-21 20:33:00,54.1,32.7,30.22,SE,135,4.0,4.0,44,0.00,,CLR,0.00,VWS V14.01,2013-04-22 01:33:00,
2013-04-21 20:34:00,54.1,32.7,30.22,SSE,158,0.0,4.0,44,0.00,,CLR,0.00,VWS V14.01,2013-04-22 01:34:00,
2013-04-21 20:35:00,54.1,32.7,30.22,SSE,158,0.0,0.0,44,0.00,,CLR,0.00,VWS V14.01,2013-04-22 01:35:00,
2013-04-21 20:36:00,53.9,32.5,30.22,ESE,112,0.0,0.0,44,0.00,,CLR,0.00,VWS V14.01,2013-04-22 01:36:00,
2013-04-21 20:38:00,53.9,32.5,30.22,South,180,1.6,7.6,44,0.00,,CLR,0.00,VWS V14.01,2013-04-22 01:38:00,
2013-04-21 20:40:00,53.9,33.1,30.23,South,180,7.0,7.0,45,0.00,,CLR,0.00,VWS V14.01,2013-04-22 01:40:00,
2013-04-21 20:43:00,53.9,33.1,30.23,SSE,158,5.2,5.2,45,0.00,,CLR,0.00,VWS V14.01,2013-04-22 01:43:00,
2013-04-21 20:45:00,53.7,32.9,30.24,South,180,13.8,13.8,45,0.00,,CLR,0.00,VWS V14.01,2013-04-22 01:45:00,
2013-04-21 20:46:00,53.7,32.9,30.24,WNW,292,5.2,13.8,45,0.00,,CLR,0.00,VWS V14.01,2013-04-22 01:46:00,
2013-04-21 20:48:00,53.7,33.4,30.24,SW,225,10.6,10.6,46,0.00,,CLR,0.00,VWS V14.01,2013-04-22 01:48:00,
2013-04-21 20:50:00,53.7,33.4,30.24,SSE,158,0.0,10.6,46,0.00,,FEW120,0.00,VWS V14.01,2013-04-22 01:50:00,
2013-04-21 20:52:00,53.7,33.4,30.24,SSE,158,0.4,6.2,46,0.00,,FEW120,0.00,VWS V14.01,2013-04-22 01:52:00,
2013-04-21 20:54:00,53.7,33.4,30.24,SSE,158,13.8,13.8,46,0.00,,FEW120,0.00,VWS V14.01,2013-04-22 01:54:00,
2013-04-21 20:56:00,53.4,33.2,30.24,SE,135,2.2,2.2,46,0.00,,FEW120,0.00,VWS V14.01,2013-04-22 01:56:00,
2013-04-21 20:58:00,53.4,33.2,30.24,SSW,202,8.4,8.4,46,0.00,,FEW120,0.00,VWS V14.01,2013-04-22 01:58:00,
2013-04-21 20:59:00,53.4,33.2,30.24,SW,225,2.6,2.6,46,0.00,,FEW120,0.00,VWS V14.01,2013-04-22 01:59:00,
2013-04-21 21:00:00,53.4,33.7,30.24,SSE,158,9.8,9.8,47,0.00,,FEW120,0.00,VWS V14.01,2013-04-22 02:00:00,
2013-04-21 21:02:00,53.4,33.7,30.24,SE,135,10.6,10.6,47,0.00,,FEW120,0.00,VWS V14.01,2013-04-22 02:02:00,
2013-04-21 21:03:00,53.2,33.5,30.24,East,90,4.4,4.4,47,0.00,,FEW120,0.00,VWS V14.01,2013-04-22 02:03:00,
2013-04-21 21:04:00,53.2,33.5,30.24,ESE,112,0.0,4.4,47,0.00,,FEW120,0.00,VWS V14.01,2013-04-22 02:04:00,
2013-04-21 21:06:00,53.2,33.5,30.24,SSE,158,0.0,13.8,47,0.00,,FEW120,0.00,VWS V14.01,2013-04-22 02:06:00,
2013-04-21 21:08:00,53.2,33.5,30.24,SSE,158,0.0,0.0,47,0.00,,FEW120,0.00,VWS V14.01,2013-04-22 02:08:00,
2013-04-21 21:10:00,53.0,33.3,30.24,South,180,0.0,1.6,47,0.00,,FEW120,0.00,VWS V14.01,2013-04-22 02:10:00,
2013-04-21 21:13:00,53.0,33.3,30.24,South,180,1.6,1.6,47,0.00,,FEW120,0.00,VWS V14.01,2013-04-22 02:13:00,
2013-04-21 21:14:00,53.0,33.3,30.24,SSE,158,4.0,4.0,47,0.00,,FEW120,0.00,VWS V14.01,2013-04-22 02:14:00,
2013-04-21 21:15:00,53.0,33.3,30.24,SE,135,8.0,8.0,47,0.00,,FEW120,0.00,VWS V14.01,2013-04-22 02:15:00,
2013-04-21 21:18:00,53.0,33.3,30.25,SSE,158,0.0,1.2,47,0.00,,FEW120,0.00,VWS V14.01,2013-04-22 02:18:00,
2013-04-21 21:19:00,53.0,33.3,30.24,South,180,0.0,0.0,47,0.00,,FEW120,0.00,VWS V14.01,2013-04-22 02:19:00,
2013-04-21 21:20:00,52.8,33.2,30.25,SE,135,6.6,6.6,47,0.00,,FEW120,0.00,VWS V14.01,2013-04-22 02:20:00,
2013-04-21 21:22:00,52.8,33.7,30.25,WSW,248,0.0,7.0,48,0.00,,FEW120,0.00,VWS V14.01,2013-04-22 02:22:00,
2013-04-21 21:23:00,53.0,33.8,30.25,SSE,158,12.8,12.8,48,0.00,,FEW120,0.00,VWS V14.01,2013-04-22 02:23:00,
2013-04-21 21:25:00,52.7,33.6,30.25,SSE,158,12.4,12.4,48,0.00,,FEW120,0.00,VWS V14.01,2013-04-22 02:25:00,
2013-04-21 21:28:00,52.8,33.7,30.25,South,180,8.4,8.4,48,0.00,,FEW120,0.00,VWS V14.01,2013-04-22 02:28:00,
2013-04-21 21:29:00,52.8,33.7,30.25,South,180,8.4,8.4,48,0.00,,FEW120,0.00,VWS V14.01,2013-04-22 02:29:00,
2013-04-21 21:32:00,52.8,33.7,30.25,SSE,158,0.0,8.8,48,0.00,,FEW120,0.00,VWS V14.01,2013-04-22 02:32:00,
2013-04-21 21:34:00,52.8,33.7,30.25,SSE,158,8.8,12.4,48,0.00,,FEW120,0.00,VWS V14.01,2013-04-22 02:34:00,
2013-04-21 21:35:00,52.8,33.7,30.25,SSE,158,8.8,8.8,48,0.00,,FEW120,0.00,VWS V14.01,2013-04-22 02:35:00,
2013-04-21 21:36:00,52.8,33.7,30.25,ESE,112,4.8,8.8,48,0.00,,FEW120,0.00,VWS V14.01,2013-04-22 02:36:00,
2013-04-21 21:38:00,52.8,33.7,30.25,SE,135,5.8,5.8,48,0.00,,FEW120,0.00,VWS V14.01,2013-04-22 02:38:00,
2013-04-21 21:41:00,52.8,33.7,30.25,SSE,158,0.0,0.0,48,0.00,,FEW120,0.00,VWS V14.01,2013-04-22 02:41:00,
2013-04-21 21:42:00,52.7,33.6,30.25,South,180,6.6,6.6,48,0.00,,FEW120,0.00,VWS V14.01,2013-04-22 02:42:00,
2013-04-21 21:43:00,52.7,33.6,30.25,South,180,6.6,6.6,48,0.00,,FEW120,0.00,VWS V14.01,2013-04-22 02:43:00,
2013-04-21 21:44:00,52.8,33.7,30.25,SSE,158,9.2,9.2,48,0.00,,FEW120,0.00,VWS V14.01,2013-04-22 02:44:00,
2013-04-21 21:46:00,52.8,33.7,30.25,SSW,202,0.0,9.2,48,0.00,,FEW120,0.00,VWS V14.01,2013-04-22 02:46:00,
2013-04-21 21:48:00,53.0,33.8,30.25,ESE,112,2.6,14.6,48,0.00,,FEW120,0.00,VWS V14.01,2013-04-22 02:48:00,
2013-04-21 21:50:00,53.0,33.3,30.25,SW,225,0.0,16.0,47,0.00,,CLR,0.00,VWS V14.01,2013-04-22 02:50:00,
2013-04-21 21:51:00,53.0,33.3,30.25,SW,225,0.0,0.0,47,0.00,,CLR,0.00,VWS V14.01,2013-04-22 02:51:00,
2013-04-21 21:52:00,53.0,33.3,30.25,SE,135,15.6,15.6,47,0.00,,CLR,0.00,VWS V14.01,2013-04-22 02:52:00,
2013-04-21 21:54:00,53.0,33.3,30.25,SSW,202,8.4,15.6,47,0.00,,CLR,0.00,VWS V14.01,2013-04-22 02:54:00,
2013-04-21 21:56:00,53.0,33.3,30.25,SSW,202,8.0,8.0,47,0.00,,CLR,0.00,VWS V14.01,2013-04-22 02:56:00,
2013-04-21 21:58:00,53.0,33.3,30.25,South,180,7.0,9.2,47,0.00,,CLR,0.00,VWS V14.01,2013-04-22 02:58:00,
2013-04-21 22:00:00,53.0,33.3,30.25,SW,225,10.2,10.2,47,0.00,,CLR,0.00,VWS V14.01,2013-04-22 03:00:00,
2013-04-21 22:02:00,53.0,33.3,30.25,South,180,0.0,10.2,47,0.00,,CLR,0.00,VWS V14.01,2013-04-22 03:02:00,
2013-04-21 22:04:00,53.0,33.3,30.25,SW,225,5.8,5.8,47,0.00,,CLR,0.00,VWS V14.01,2013-04-22 03:04:00,
2013-04-21 22:06:00,53.0,33.3,30.25,SW,225,0.0,16.0,47,0.00,,CLR,0.00,VWS V14.01,2013-04-22 03:06:00,
2013-04-21 22:10:00,53.0,33.3,30.25,SE,135,14.2,14.2,47,0.00,,CLR,0.00,VWS V14.01,2013-04-22 03:10:00,
2013-04-21 22:11:00,53.0,33.3,30.25,South,180,2.2,2.2,47,0.00,,CLR,0.00,VWS V14.01,2013-04-22 03:11:00,
2013-04-21 22:12:00,53.0,33.3,30.24,SSW,202,4.8,6.2,47,0.00,,CLR,0.00,VWS V14.01,2013-04-22 03:12:00,
2013-04-21 22:15:00,53.0,33.3,30.24,SE,135,0.0,0.0,47,0.00,,CLR,0.00,VWS V14.01,2013-04-22 03:15:00,
2013-04-21 22:16:00,53.0,33.3,30.24,South,180,8.8,8.8,47,0.00,,CLR,0.00,VWS V14.01,2013-04-22 03:16:00,
2013-04-21 22:18:00,53.0,33.3,30.24,SSE,158,8.0,8.0,47,0.00,,CLR,0.00,VWS V14.01,2013-04-22 03:18:00,
2013-04-21 22:20:00,52.8,33.2,30.24,NE,45,6.2,7.0,47,0.00,,CLR,0.00,VWS V14.01,2013-04-22 03:20:00,
2013-04-21 22:21:00,52.8,33.2,30.24,ESE,112,11.6,11.6,47,0.00,,CLR,0.00,VWS V14.01,2013-04-22 03:21:00,
2013-04-21 22:24:00,52.8,33.2,30.24,SSE,158,8.0,8.0,47,0.00,,CLR,0.00,VWS V14.01,2013-04-22 03:24:00,
2013-04-21 22:25:00,52.8,33.2,30.24,SSE,158,8.0,8.0,47,0.00,,CLR,0.00,VWS V14.01,2013-04-22 03:25:00,
2013-04-21 22:27:00,52.7,33.0,30.24,SW,225,5.8,5.8,47,0.00,,CLR,0.00,VWS V14.01,2013-04-22 03:27:00,
2013-04-21 22:28:00,52.7,33.0,30.24,SE,135,1.6,5.8,47,0.00,,CLR,0.00,VWS V14.01,2013-04-22 03:28:00,
2013-04-21 22:30:00,52.7,33.0,30.24,SSE,158,0.4,12.0,47,0.00,,CLR,0.00,VWS V14.01,2013-04-22 03:30:00,
2013-04-21 22:31:00,52.7,33.0,30.24,SSE,158,1.6,1.6,47,0.00,,CLR,0.00,VWS V14.01,2013-04-22 03:31:00,
2013-04-21 22:33:00,52.7,33.6,30.24,South,180,0.0,0.0,48,0.00,,CLR,0.00,VWS V14.01,2013-04-22 03:33:00,
2013-04-21 22:36:00,52.5,33.4,30.24,SSW,202,4.4,8.8,48,0.00,,CLR,0.00,VWS V14.01,2013-04-22 03:36:00,
2013-04-21 22:38:00,52.5,33.4,30.24,SSE,158,8.0,8.0,48,0.00,,CLR,0.00,VWS V14.01,2013-04-22 03:38:00,
2013-04-21 22:40:00,52.3,33.2,30.24,SE,135,17.0,17.0,48,0.00,,CLR,0.00,VWS V14.01,2013-04-22 03:40:00,
2013-04-21 22:41:00,52.3,33.2,30.24,SE,135,17.0,17.0,48,0.00,,CLR,0.00,VWS V14.01,2013-04-22 03:41:00,
2013-04-21 22:44:00,52.3,33.2,30.24,SSE,158,7.6,7.6,48,0.00,,CLR,0.00,VWS V14.01,2013-04-22 03:44:00,
2013-04-21 22:45:00,52.1,33.0,30.24,South,180,7.0,7.6,48,0.00,,CLR,0.00,VWS V14.01,2013-04-22 03:45:00,
2013-04-21 22:46:00,52.3,33.2,30.24,SSE,158,11.0,11.0,48,0.00,,CLR,0.00,VWS V14.01,2013-04-22 03:46:00,
2013-04-21 22:48:00,52.3,33.7,30.24,ESE,112,4.4,4.4,49,0.00,,CLR,0.00,VWS V14.01,2013-04-22 03:48:00,
2013-04-21 22:51:00,52.1,33.5,30.24,South,180,8.0,8.0,49,0.00,,CLR,0.00,VWS V14.01,2013-04-22 03:51:00,
2013-04-21 22:53:00,52.1,33.5,30.24,ESE,112,4.4,9.2,49,0.00,,CLR,0.00,VWS V14.01,2013-04-22 03:53:00,
2013-04-21 22:54:00,52.1,33.5,30.24,SE,135,2.6,9.2,49,0.00,,CLR,0.00,VWS V14.01,2013-04-22 03:54:00,
2013-04-21 22:55:00,52.1,33.5,30.24,SSE,158,0.4,2.6,49,0.00,,CLR,0.00,VWS V14.01,2013-04-22 03:55:00,
2013-04-21 22:56:00,52.1,33.5,30.24,SSW,202,7.6,7.6,49,0.00,,CLR,0.00,VWS V14.01,2013-04-22 03:56:00,
2013-04-21 22:59:00,51.9,33.4,30.24,South,180,0.0,5.8,49,0.00,,CLR,0.00,VWS V14.01,2013-04-22 03:59:00,
2013-04-21 23:01:00,51.9,33.4,30.24,SSE,158,12.8,12.8,49,0.00,,CLR,0.00,VWS V14.01,2013-04-22 04:01:00,
2013-04-21 23:02:00,51.9,33.4,30.24,South,180,11.0,12.8,49,0.00,,CLR,0.00,VWS V14.01,2013-04-22 04:02:00,
2013-04-21 23:03:00,51.9,33.4,30.24,SW,225,4.8,11.0,49,0.00,,CLR,0.00,VWS V14.01,2013-04-22 04:03:00,
2013-04-21 23:06:00,51.9,33.4,30.24,SSE,158,2.6,13.4,49,0.00,,CLR,0.00,VWS V14.01,2013-04-22 04:06:00,
2013-04-21 23:08:00,51.9,33.4,30.24,South,180,4.0,5.2,49,0.00,,CLR,0.00,VWS V14.01,2013-04-22 04:08:00,
2013-04-21 23:11:00,51.8,33.3,30.24,SSE,158,5.8,16.0,49,0.00,,CLR,0.00,VWS V14.01,2013-04-22 04:11:00,
2013-04-21 23:12:00,51.9,33.4,30.24,NNE,22,7.0,16.0,49,0.00,,CLR,0.00,VWS V14.01,2013-04-22 04:12:00,
2013-04-21 23:14:00,51.8,33.3,30.24,SSW,202,7.0,7.0,49,0.00,,CLR,0.00,VWS V14.01,2013-04-22 04:14:00,
2013-04-21 23:16:00,51.8,33.3,30.24,SSE,158,4.8,4.8,49,0.00,,CLR,0.00,VWS V14.01,2013-04-22 04:16:00,
2013-04-21 23:19:00,51.6,33.1,30.24,South,180,11.0,11.0,49,0.00,,CLR,0.00,VWS V14.01,2013-04-22 04:19:00,
2013-04-21 23:20:00,51.6,33.1,30.24,ESE,112,9.2,11.0,49,0.00,,CLR,0.00,VWS V14.01,2013-04-22 04:20:00,
2013-04-21 23:21:00,51.6,33.1,30.24,SSE,158,4.8,9.2,49,0.00,,CLR,0.00,VWS V14.01,2013-04-22 04:21:00,
2013-04-21 23:24:00,51.6,33.1,30.23,SSE,158,9.8,9.8,49,0.00,,CLR,0.00,VWS V14.01,2013-04-22 04:24:00,
2013-04-21 23:27:00,51.6,33.1,30.24,SE,135,5.2,5.2,49,0.00,,CLR,0.00,VWS V14.01,2013-04-22 04:27:00,
2013-04-21 23:28:00,51.6,33.1,30.24,SW,225,0.0,0.0,49,0.00,,CLR,0.00,VWS V14.01,2013-04-22 04:28:00,
2013-04-21 23:29:00,51.6,33.1,30.24,SSE,158,0.0,0.0,49,0.00,,CLR,0.00,VWS V14.01,2013-04-22 04:29:00,
2013-04-21 23:30:00,51.6,33.1,30.23,SE,135,3.4,3.4,49,0.00,,CLR,0.00,VWS V14.01,2013-04-22 04:30:00,
2013-04-21 23:33:00,51.6,32.6,30.23,SSE,158,12.0,12.0,48,0.00,,CLR,0.00,VWS V14.01,2013-04-22 04:33:00,
2013-04-21 23:35:00,51.6,32.6,30.23,SSE,158,8.8,8.8,48,0.00,,CLR,0.00,VWS V14.01,2013-04-22 04:35:00,
2013-04-21 23:36:00,51.4,32.4,30.23,SSE,158,6.6,8.8,48,0.00,,CLR,0.00,VWS V14.01,2013-04-22 04:36:00,
2013-04-21 23:38:00,51.4,32.4,30.23,SSE,158,6.6,6.6,48,0.00,,CLR,0.00,VWS V14.01,2013-04-22 04:38:00,
2013-04-21 23:41:00,51.4,32.4,30.23,SSE,158,4.8,8.4,48,0.00,,CLR,0.00,VWS V14.01,2013-04-22 04:41:00,
2013-04-21 23:42:00,51.4,32.4,30.23,SE,135,2.6,8.4,48,0.00,,CLR,0.00,VWS V14.01,2013-04-22 04:42:00,
2013-04-21 23:43:00,51.4,32.4,30.23,SSE,158,5.8,5.8,48,0.00,,CLR,0.00,VWS V14.01,2013-04-22 04:43:00,
2013-04-21 23:44:00,51.4,32.4,30.23,South,180,8.4,8.4,48,0.00,,CLR,0.00,VWS V14.01,2013-04-22 04:44:00,
2013-04-21 23:49:00,51.6,32.6,30.23,South,180,7.6,7.6,48,0.00,,CLR,0.00,VWS V14.01,2013-04-22 04:49:00,
2013-04-21 23:50:00,51.6,32.6,30.23,SE,135,6.2,7.6,48,0.00,,CLR,1.12,VWS V14.01,2013-04-22 04:50:00,
2013-04-21 23:54:00,51.4,32.4,30.23,ESE,112,8.0,8.0,48,0.00,,CLR,0.00,VWS V14.01,2013-04-22 04:54:00,
2013-04-21 23:55:00,51.4,32.4,30.23,ESE,112,8.0,8.0,48,0.00,,CLR,0.00,VWS V14.01,2013-04-22 04:55:00,
2013-04-21 23:56:00,51.4,32.4,30.23,ESE,112,2.6,8.0,48,0.00,,CLR,0.00,VWS V14.01,2013-04-22 04:56:00,